Year,Month,Day,Hour,Minute,Value (Times are PST for windspeed in km/hr)
2011,07,08,00,00,24.50
2011,07,08,00,01,25.60
2011,07,08,00,02,25.90
2011,07,08,00,03,30.60
2011,07,08,00,04,26.40
2011,07,08,00,05,25.20
2011,07,08,00,06,22.70
2011,07,08,00,07,24.30
2011,07,08,00,08,24.30
2011,07,08,00,09,32.20
2011,07,08,00,10,30.30
2011,07,08,00,11,25.50
2011,07,08,00,12,27.30
2011,07,08,00,13,27.60
2011,07,08,00,14,33.90
2011,07,08,00,15,28.60
2011,07,08,00,16,26.30
2011,07,08,00,17,24.10
2011,07,08,00,18,28.60
2011,07,08,00,19,25.60
2011,07,08,00,20,28.20
2011,07,08,00,21,31.90
2011,07,08,00,22,29.80
2011,07,08,00,23,31.90
2011,07,08,00,24,31.90
2011,07,08,00,25,30.10
2011,07,08,00,26,30.10
2011,07,08,00,27,31.90
2011,07,08,00,28,30.10
2011,07,08,00,29,28.70
2011,07,08,00,30,33.10
2011,07,08,00,31,30.70
2011,07,08,00,32,29.50
2011,07,08,00,33,30.30
2011,07,08,00,34,24.30
2011,07,08,00,35,27.00
2011,07,08,00,36,30.70
2011,07,08,00,37,32.30
2011,07,08,00,38,30.70
2011,07,08,00,39,31.30
2011,07,08,00,40,28.70
2011,07,08,00,41,29.90
2011,07,08,00,42,27.50
2011,07,08,00,43,26.20
2011,07,08,00,44,27.30
2011,07,08,00,45,27.40
2011,07,08,00,46,30.30
2011,07,08,00,47,25.80
2011,07,08,00,48,26.90
2011,07,08,00,49,29.40
2011,07,08,00,50,24.10
2011,07,08,00,51,29.90
2011,07,08,00,52,24.00
2011,07,08,00,53,28.20
2011,07,08,00,54,28.40
2011,07,08,00,55,32.30
2011,07,08,00,56,29.50
2011,07,08,00,57,28.30
2011,07,08,00,58,27.20
2011,07,08,00,59,25.90
2011,07,08,01,00,25.80
2011,07,08,01,01,26.00
2011,07,08,01,02,23.60
2011,07,08,01,03,24.70
2011,07,08,01,04,26.70
2011,07,08,01,05,23.00
2011,07,08,01,06,23.40
2011,07,08,01,07,24.50
2011,07,08,01,08,20.40
2011,07,08,01,09,23.30
2011,07,08,01,10,21.70
2011,07,08,01,11,20.60
2011,07,08,01,12,28.70
2011,07,08,01,13,21.70
2011,07,08,01,14,27.20
2011,07,08,01,15,23.00
2011,07,08,01,16,21.10
2011,07,08,01,17,26.90
2011,07,08,01,18,24.50
2011,07,08,01,19,21.60
2011,07,08,01,20,28.30
2011,07,08,01,21,22.40
2011,07,08,01,22,25.80
2011,07,08,01,23,28.60
2011,07,08,01,24,29.70
2011,07,08,01,25,30.20
2011,07,08,01,26,28.30
2011,07,08,01,27,28.80
2011,07,08,01,28,23.50
2011,07,08,01,29,25.50
2011,07,08,01,30,25.80
2011,07,08,01,31,28.40
2011,07,08,01,32,28.00
2011,07,08,01,33,25.80
2011,07,08,01,34,30.20
2011,07,08,01,35,31.60
2011,07,08,01,36,30.30
2011,07,08,01,37,26.50
2011,07,08,01,38,33.30
2011,07,08,01,39,27.60
2011,07,08,01,40,26.40
2011,07,08,01,41,24.00
2011,07,08,01,42,23.40
2011,07,08,01,43,21.60
2011,07,08,01,44,21.20
2011,07,08,01,45,22.60
2011,07,08,01,46,26.60
2011,07,08,01,47,21.30
2011,07,08,01,48,23.70
2011,07,08,01,49,27.60
2011,07,08,01,50,26.00
2011,07,08,01,51,23.20
2011,07,08,01,52,21.20
2011,07,08,01,53,25.00
2011,07,08,01,54,25.00
2011,07,08,01,55,25.90
2011,07,08,01,56,23.30
2011,07,08,01,57,19.40
2011,07,08,01,58,18.70
2011,07,08,01,59,18.10
2011,07,08,02,00,23.50
2011,07,08,02,01,23.40
2011,07,08,02,02,23.20
2011,07,08,02,03,26.00
2011,07,08,02,04,19.70
2011,07,08,02,05,18.40
2011,07,08,02,06,15.60
2011,07,08,02,07,22.00
2011,07,08,02,08,22.90
2011,07,08,02,09,17.70
2011,07,08,02,10,20.20
2011,07,08,02,11,20.80
2011,07,08,02,12,19.90
2011,07,08,02,13,22.70
2011,07,08,02,14,20.00
2011,07,08,02,15,23.40
2011,07,08,02,16,22.90
2011,07,08,02,17,24.90
2011,07,08,02,18,25.70
2011,07,08,02,19,25.30
2011,07,08,02,20,24.30
2011,07,08,02,21,26.50
2011,07,08,02,22,25.00
2011,07,08,02,23,24.70
2011,07,08,02,24,23.90
2011,07,08,02,25,27.40
2011,07,08,02,26,28.50
2011,07,08,02,27,24.90
2011,07,08,02,28,24.80
2011,07,08,02,29,20.80
2011,07,08,02,30,20.50
2011,07,08,02,31,20.90
2011,07,08,02,32,25.70
2011,07,08,02,33,21.90
2011,07,08,02,34,22.00
2011,07,08,02,35,19.20
2011,07,08,02,36,16.40
2011,07,08,02,37,17.30
2011,07,08,02,38,20.90
2011,07,08,02,39,22.90
2011,07,08,02,40,20.30
2011,07,08,02,41,22.60
2011,07,08,02,42,23.70
2011,07,08,02,43,23.60
2011,07,08,02,44,18.30
2011,07,08,02,45,18.20
2011,07,08,02,46,16.10
2011,07,08,02,47,14.80
2011,07,08,02,48,19.70
2011,07,08,02,49,16.80
2011,07,08,02,50,14.90
2011,07,08,02,51,19.10
2011,07,08,02,52,12.60
2011,07,08,02,53,12.70
2011,07,08,02,54,17.10
2011,07,08,02,55,16.30
2011,07,08,02,56,18.30
2011,07,08,02,57,19.20
2011,07,08,02,58,15.80
2011,07,08,02,59,18.50
2011,07,08,03,00,21.40
2011,07,08,03,01,19.80
2011,07,08,03,02,17.00
2011,07,08,03,03,18.70
2011,07,08,03,04,25.10
2011,07,08,03,05,21.80
2011,07,08,03,06,20.10
2011,07,08,03,07,20.60
2011,07,08,03,08,18.20
2011,07,08,03,09,17.10
2011,07,08,03,10,20.00
2011,07,08,03,11,17.60
2011,07,08,03,12,15.10
2011,07,08,03,13,15.40
2011,07,08,03,14,24.50
2011,07,08,03,15,26.00
2011,07,08,03,16,19.60
2011,07,08,03,17,20.00
2011,07,08,03,18,21.90
2011,07,08,03,19,18.20
2011,07,08,03,20,12.80
2011,07,08,03,21,14.60
2011,07,08,03,22,15.50
2011,07,08,03,23,21.20
2011,07,08,03,24,22.60
2011,07,08,03,25,19.60
2011,07,08,03,26,21.40
2011,07,08,03,27,19.40
2011,07,08,03,28,18.50
2011,07,08,03,29,20.90
2011,07,08,03,30,21.80
2011,07,08,03,31,23.70
2011,07,08,03,32,17.30
2011,07,08,03,33,10.60
2011,07,08,03,34,14.30
2011,07,08,03,35,12.60
2011,07,08,03,36,16.10
2011,07,08,03,37,15.00
2011,07,08,03,38,15.70
2011,07,08,03,39,15.10
2011,07,08,03,40,21.20
2011,07,08,03,41,13.70
2011,07,08,03,42,20.40
2011,07,08,03,43,17.60
2011,07,08,03,44,17.00
2011,07,08,03,45,18.10
2011,07,08,03,46,18.50
2011,07,08,03,47,17.60
2011,07,08,03,48,17.40
2011,07,08,03,49,19.60
2011,07,08,03,50,14.90
2011,07,08,03,51,10.50
2011,07,08,03,52,11.20
2011,07,08,03,53,16.90
2011,07,08,03,54,20.40
2011,07,08,03,55,17.80
2011,07,08,03,56,18.20
2011,07,08,03,57,19.30
2011,07,08,03,58,18.10
2011,07,08,03,59,15.70
2011,07,08,04,00,17.60
2011,07,08,04,01,16.10
2011,07,08,04,02,20.00
2011,07,08,04,03,21.50
2011,07,08,04,04,21.20
2011,07,08,04,05,16.90
2011,07,08,04,06,14.50
2011,07,08,04,07,16.50
2011,07,08,04,08,22.40
2011,07,08,04,09,19.50
2011,07,08,04,10,19.50
2011,07,08,04,11,18.70
2011,07,08,04,12,20.40
2011,07,08,04,13,19.30
2011,07,08,04,14,23.80
2011,07,08,04,15,22.40
2011,07,08,04,16,17.60
2011,07,08,04,17,20.00
2011,07,08,04,18,25.30
2011,07,08,04,19,23.40
2011,07,08,04,20,23.90
2011,07,08,04,21,26.80
2011,07,08,04,22,25.20
2011,07,08,04,23,23.20
2011,07,08,04,24,27.40
2011,07,08,04,25,22.10
2011,07,08,04,26,25.20
2011,07,08,04,27,21.70
2011,07,08,04,28,22.50
2011,07,08,04,29,19.50
2011,07,08,04,30,16.50
2011,07,08,04,31,21.70
2011,07,08,04,32,26.00
2011,07,08,04,33,25.70
2011,07,08,04,34,23.60
2011,07,08,04,35,21.40
2011,07,08,04,36,20.50
2011,07,08,04,37,19.40
2011,07,08,04,38,19.10
2011,07,08,04,39,19.70
2011,07,08,04,40,23.00
2011,07,08,04,41,21.70
2011,07,08,04,42,22.70
2011,07,08,04,43,26.10
2011,07,08,04,44,20.00
2011,07,08,04,45,21.40
2011,07,08,04,46,24.00
2011,07,08,04,47,17.80
2011,07,08,04,48,16.30
2011,07,08,04,49,19.80
2011,07,08,04,50,19.10
2011,07,08,04,51,16.30
2011,07,08,04,52,23.30
2011,07,08,04,53,17.80
2011,07,08,04,54,22.90
2011,07,08,04,55,17.90
2011,07,08,04,56,16.90
2011,07,08,04,57,18.50
2011,07,08,04,58,19.60
2011,07,08,04,59,17.90
2011,07,08,05,00,14.20
2011,07,08,05,01,16.10
2011,07,08,05,02,18.70
2011,07,08,05,03,15.40
2011,07,08,05,04,17.60
2011,07,08,05,05,15.00
2011,07,08,05,06,18.20
2011,07,08,05,07,15.00
2011,07,08,05,08,20.70
2011,07,08,05,09,18.60
2011,07,08,05,10,12.90
2011,07,08,05,11,14.00
2011,07,08,05,12,16.80
2011,07,08,05,13,14.60
2011,07,08,05,14,14.30
2011,07,08,05,15,14.90
2011,07,08,05,16,18.10
2011,07,08,05,17,11.10
2011,07,08,05,18,10.70
2011,07,08,05,19,10.70
2011,07,08,05,20,16.50
2011,07,08,05,21,18.10
2011,07,08,05,22,19.50
2011,07,08,05,23,17.10
2011,07,08,05,24,16.60
2011,07,08,05,25,15.40
2011,07,08,05,26,17.90
2011,07,08,05,27,22.10
2011,07,08,05,28,22.30
2011,07,08,05,29,18.70
2011,07,08,05,30,25.10
2011,07,08,05,31,29.10
2011,07,08,05,32,25.30
2011,07,08,05,33,23.70
2011,07,08,05,34,22.10
2011,07,08,05,35,25.60
2011,07,08,05,36,21.30
2011,07,08,05,37,22.60
2011,07,08,05,38,25.20
2011,07,08,05,39,26.50
2011,07,08,05,40,22.30
2011,07,08,05,41,22.60
2011,07,08,05,42,21.20
2011,07,08,05,43,24.90
2011,07,08,05,44,24.60
2011,07,08,05,45,22.00
2011,07,08,05,46,22.20
2011,07,08,05,47,26.30
2011,07,08,05,48,26.60
2011,07,08,05,49,25.20
2011,07,08,05,50,25.10
2011,07,08,05,51,20.50
2011,07,08,05,52,26.30
2011,07,08,05,53,24.60
2011,07,08,05,54,17.40
2011,07,08,05,55,22.30
2011,07,08,05,56,20.10
2011,07,08,05,57,25.10
2011,07,08,05,58,20.80
2011,07,08,05,59,21.40
2011,07,08,06,00,22.00
2011,07,08,06,01,21.20
2011,07,08,06,02,18.80
2011,07,08,06,03,17.20
2011,07,08,06,04,18.20
2011,07,08,06,05,21.60
2011,07,08,06,06,19.10
2011,07,08,06,07,17.60
2011,07,08,06,08,22.70
2011,07,08,06,09,19.40
2011,07,08,06,10,20.80
2011,07,08,06,11,23.00
2011,07,08,06,12,18.30
2011,07,08,06,13,17.50
2011,07,08,06,14,18.30
2011,07,08,06,15,17.10
2011,07,08,06,16,14.80
2011,07,08,06,17,19.80
2011,07,08,06,18,13.70
2011,07,08,06,19,13.20
2011,07,08,06,20,18.20
2011,07,08,06,21,19.70
2011,07,08,06,22,17.50
2011,07,08,06,23,19.50
2011,07,08,06,24,18.30
2011,07,08,06,25,13.50
2011,07,08,06,26,17.40
2011,07,08,06,27,15.90
2011,07,08,06,28,15.40
2011,07,08,06,29,13.90
2011,07,08,06,30,12.50
2011,07,08,06,31,18.90
2011,07,08,06,32,19.60
2011,07,08,06,33,12.70
2011,07,08,06,34,15.40
2011,07,08,06,35,13.40
2011,07,08,06,36,14.40
2011,07,08,06,37,10.40
2011,07,08,06,38,13.60
2011,07,08,06,39,12.50
2011,07,08,06,40,14.80
2011,07,08,06,41,14.20
2011,07,08,06,42,18.00
2011,07,08,06,43,14.80
2011,07,08,06,44,12.30
2011,07,08,06,45,22.10
2011,07,08,06,46,21.30
2011,07,08,06,47,15.30
2011,07,08,06,48,12.20
2011,07,08,06,49,14.90
2011,07,08,06,50,16.70
2011,07,08,06,51,15.00
2011,07,08,06,52,14.80
2011,07,08,06,53,15.70
2011,07,08,06,54,17.10
2011,07,08,06,55,18.80
2011,07,08,06,56,22.00
2011,07,08,06,57,19.50
2011,07,08,06,58,15.80
2011,07,08,06,59,18.10
2011,07,08,07,00,18.70
2011,07,08,07,01,17.30
2011,07,08,07,02,13.50
2011,07,08,07,03,16.20
2011,07,08,07,04,15.50
2011,07,08,07,05,13.70
2011,07,08,07,06,13.00
2011,07,08,07,07,12.80
2011,07,08,07,08,13.40
2011,07,08,07,09,10.90
2011,07,08,07,10,9.60
2011,07,08,07,11,8.20
2011,07,08,07,12,9.30
2011,07,08,07,13,10.20
2011,07,08,07,14,9.30
2011,07,08,07,15,12.20
2011,07,08,07,16,8.10
2011,07,08,07,17,5.30
2011,07,08,07,18,8.70
2011,07,08,07,19,8.50
2011,07,08,07,20,7.20
2011,07,08,07,21,9.20
2011,07,08,07,22,11.40
2011,07,08,07,23,9.70
2011,07,08,07,24,9.50
2011,07,08,07,25,10.70
2011,07,08,07,26,11.30
2011,07,08,07,27,10.50
2011,07,08,07,28,12.70
2011,07,08,07,29,10.10
2011,07,08,07,30,8.50
2011,07,08,07,31,12.00
2011,07,08,07,32,10.00
2011,07,08,07,33,7.20
2011,07,08,07,34,11.30
2011,07,08,07,35,12.50
2011,07,08,07,36,9.90
2011,07,08,07,37,13.80
2011,07,08,07,38,11.00
2011,07,08,07,39,7.20
2011,07,08,07,40,9.60
2011,07,08,07,41,12.60
2011,07,08,07,42,9.50
2011,07,08,07,43,11.10
2011,07,08,07,44,13.60
2011,07,08,07,45,15.90
2011,07,08,07,46,15.90
2011,07,08,07,47,11.80
2011,07,08,07,48,18.00
2011,07,08,07,49,14.30
2011,07,08,07,50,12.30
2011,07,08,07,51,13.50
2011,07,08,07,52,12.10
2011,07,08,07,53,15.40
2011,07,08,07,54,11.00
2011,07,08,07,55,10.50
2011,07,08,07,56,9.60
2011,07,08,07,57,8.40
2011,07,08,07,58,11.30
2011,07,08,07,59,13.70
2011,07,08,08,00,12.80
2011,07,08,08,01,9.50
2011,07,08,08,02,6.30
2011,07,08,08,03,7.20
2011,07,08,08,04,11.00
2011,07,08,08,05,12.80
2011,07,08,08,06,13.50
2011,07,08,08,07,14.40
2011,07,08,08,08,16.50
2011,07,08,08,09,17.20
2011,07,08,08,10,14.70
2011,07,08,08,11,15.60
2011,07,08,08,12,13.50
2011,07,08,08,13,10.10
2011,07,08,08,14,8.20
2011,07,08,08,15,9.80
2011,07,08,08,16,13.60
2011,07,08,08,17,14.70
2011,07,08,08,18,17.50
2011,07,08,08,19,16.20
2011,07,08,08,20,22.00
2011,07,08,08,21,17.80
2011,07,08,08,22,17.50
2011,07,08,08,23,18.50
2011,07,08,08,24,13.40
2011,07,08,08,25,12.30
2011,07,08,08,26,14.60
2011,07,08,08,27,10.40
2011,07,08,08,28,15.60
2011,07,08,08,29,13.00
2011,07,08,08,30,13.50
2011,07,08,08,31,15.40
2011,07,08,08,32,13.90
2011,07,08,08,33,15.90
2011,07,08,08,34,16.50
2011,07,08,08,35,13.70
2011,07,08,08,36,14.60
2011,07,08,08,37,16.80
2011,07,08,08,38,10.90
2011,07,08,08,39,10.10
2011,07,08,08,40,14.80
2011,07,08,08,41,16.90
2011,07,08,08,42,16.50
2011,07,08,08,43,17.00
2011,07,08,08,44,17.90
2011,07,08,08,45,14.60
2011,07,08,08,46,13.80
2011,07,08,08,47,17.50
2011,07,08,08,48,15.80
2011,07,08,08,49,9.70
2011,07,08,08,50,10.90
2011,07,08,08,51,15.60
2011,07,08,08,52,14.60
2011,07,08,08,53,19.00
2011,07,08,08,54,15.80
2011,07,08,08,55,13.40
2011,07,08,08,56,13.80
2011,07,08,08,57,12.80
2011,07,08,08,58,13.50
2011,07,08,08,59,13.50
2011,07,08,09,00,15.90
2011,07,08,09,01,17.50
2011,07,08,09,02,18.20
2011,07,08,09,03,15.70
2011,07,08,09,04,15.70
2011,07,08,09,05,8.50
2011,07,08,09,06,11.70
2011,07,08,09,07,15.10
2011,07,08,09,08,14.70
2011,07,08,09,09,14.50
2011,07,08,09,10,17.90
2011,07,08,09,11,14.40
2011,07,08,09,12,13.90
2011,07,08,09,13,13.50
2011,07,08,09,14,10.70
2011,07,08,09,15,18.70
2011,07,08,09,16,17.90
2011,07,08,09,17,12.30
2011,07,08,09,18,12.10
2011,07,08,09,19,8.00
2011,07,08,09,20,16.00
2011,07,08,09,21,15.30
2011,07,08,09,22,9.70
2011,07,08,09,23,14.80
2011,07,08,09,24,15.40
2011,07,08,09,25,16.30
2011,07,08,09,26,17.00
2011,07,08,09,27,12.30
2011,07,08,09,28,13.80
2011,07,08,09,29,17.90
2011,07,08,09,30,15.10
2011,07,08,09,31,20.10
2011,07,08,09,32,24.20
2011,07,08,09,33,20.30
2011,07,08,09,34,18.80
2011,07,08,09,35,20.30
2011,07,08,09,36,25.60
2011,07,08,09,37,19.20
2011,07,08,09,38,24.50
2011,07,08,09,39,25.80
2011,07,08,09,40,24.20
2011,07,08,09,41,19.00
2011,07,08,09,42,19.90
2011,07,08,09,43,21.70
2011,07,08,09,44,19.20
2011,07,08,09,45,20.40
2011,07,08,09,46,18.20
2011,07,08,09,47,19.60
2011,07,08,09,48,16.70
2011,07,08,09,49,19.50
2011,07,08,09,50,21.00
2011,07,08,09,51,23.80
2011,07,08,09,52,20.00
2011,07,08,09,53,19.10
2011,07,08,09,54,24.10
2011,07,08,09,55,18.90
2011,07,08,09,56,20.00
2011,07,08,09,57,20.20
2011,07,08,09,58,23.20
2011,07,08,09,59,24.50
2011,07,08,10,00,29.90
2011,07,08,10,01,25.10
2011,07,08,10,02,20.60
2011,07,08,10,03,26.10
2011,07,08,10,04,22.00
2011,07,08,10,05,17.50
2011,07,08,10,06,15.40
2011,07,08,10,07,21.60
2011,07,08,10,08,21.10
2011,07,08,10,09,21.20
2011,07,08,10,10,25.60
2011,07,08,10,11,25.30
2011,07,08,10,12,24.30
2011,07,08,10,13,21.00
2011,07,08,10,14,22.70
2011,07,08,10,15,17.50
2011,07,08,10,16,23.00
2011,07,08,10,17,25.60
2011,07,08,10,18,21.80
2011,07,08,10,19,20.20
2011,07,08,10,20,26.50
2011,07,08,10,21,25.40
2011,07,08,10,22,23.70
2011,07,08,10,23,22.40
2011,07,08,10,24,25.80
2011,07,08,10,25,24.80
2011,07,08,10,26,23.80
2011,07,08,10,27,22.80
2011,07,08,10,28,17.60
2011,07,08,10,29,19.80
2011,07,08,10,30,23.60
2011,07,08,10,31,26.20
2011,07,08,10,32,28.50
2011,07,08,10,33,30.70
2011,07,08,10,34,28.10
2011,07,08,10,35,23.80
2011,07,08,10,36,30.10
2011,07,08,10,37,30.10
2011,07,08,10,38,23.90
2011,07,08,10,39,23.00
2011,07,08,10,40,27.50
2011,07,08,10,41,30.30
2011,07,08,10,42,25.60
2011,07,08,10,43,21.20
2011,07,08,10,44,25.70
2011,07,08,10,45,25.70
2011,07,08,10,46,23.70
2011,07,08,10,47,28.20
2011,07,08,10,48,27.60
2011,07,08,10,49,25.20
2011,07,08,10,50,20.30
2011,07,08,10,51,25.10
2011,07,08,10,52,23.30
2011,07,08,10,53,20.80
2011,07,08,10,54,20.20
2011,07,08,10,55,22.50
2011,07,08,10,56,21.40
2011,07,08,10,57,27.00
2011,07,08,10,58,24.50
2011,07,08,10,59,27.00
2011,07,08,11,00,22.50
2011,07,08,11,01,22.60
2011,07,08,11,02,21.50
2011,07,08,11,03,18.50
2011,07,08,11,04,24.10
2011,07,08,11,05,27.50
2011,07,08,11,06,20.40
2011,07,08,11,07,19.10
2011,07,08,11,08,21.80
2011,07,08,11,09,26.50
2011,07,08,11,10,31.00
2011,07,08,11,11,33.80
2011,07,08,11,12,26.90
2011,07,08,11,13,23.10
2011,07,08,11,14,23.70
2011,07,08,11,15,20.50
2011,07,08,11,16,28.60
2011,07,08,11,17,28.60
2011,07,08,11,18,28.60
2011,07,08,11,19,26.70
2011,07,08,11,20,29.60
2011,07,08,11,21,27.00
2011,07,08,11,22,29.70
2011,07,08,11,23,23.30
2011,07,08,11,24,27.70
2011,07,08,11,25,28.10
2011,07,08,11,26,24.30
2011,07,08,11,27,25.00
2011,07,08,11,28,23.80
2011,07,08,11,29,20.40
2011,07,08,11,30,18.30
2011,07,08,11,31,18.70
2011,07,08,11,32,17.50
2011,07,08,11,33,22.90
2011,07,08,11,34,22.90
2011,07,08,11,35,25.80
2011,07,08,11,36,20.90
2011,07,08,11,37,23.30
2011,07,08,11,38,28.20
2011,07,08,11,39,25.30
2011,07,08,11,40,22.90
2011,07,08,11,41,24.70
2011,07,08,11,42,21.60
2011,07,08,11,43,24.50
2011,07,08,11,44,22.40
2011,07,08,11,45,23.40
2011,07,08,11,46,19.50
2011,07,08,11,47,26.60
2011,07,08,11,48,29.50
2011,07,08,11,49,24.00
2011,07,08,11,50,24.60
2011,07,08,11,51,27.20
2011,07,08,11,52,25.90
2011,07,08,11,53,26.10
2011,07,08,11,54,23.00
2011,07,08,11,55,22.60
2011,07,08,11,56,23.00
2011,07,08,11,57,24.60
2011,07,08,11,58,26.30
2011,07,08,11,59,23.30
2011,07,08,12,00,24.60
2011,07,08,12,01,23.80
2011,07,08,12,02,26.20
2011,07,08,12,03,22.90
2011,07,08,12,04,18.00
2011,07,08,12,05,22.40
2011,07,08,12,06,18.90
2011,07,08,12,07,24.40
2011,07,08,12,08,24.20
2011,07,08,12,09,24.60
2011,07,08,12,10,28.30
2011,07,08,12,11,21.10
2011,07,08,12,12,19.20
2011,07,08,12,13,23.70
2011,07,08,12,14,25.20
2011,07,08,12,15,25.10
2011,07,08,12,16,22.90
2011,07,08,12,17,24.10
2011,07,08,12,18,26.90
2011,07,08,12,19,24.60
2011,07,08,12,20,22.70
2011,07,08,12,21,21.70
2011,07,08,12,22,25.50
2011,07,08,12,23,26.80
2011,07,08,12,24,27.40
2011,07,08,12,25,27.70
2011,07,08,12,26,24.70
2011,07,08,12,27,27.80
2011,07,08,12,28,22.90
2011,07,08,12,29,17.90
2011,07,08,12,30,24.50
2011,07,08,12,31,22.00
2011,07,08,12,32,25.10
2011,07,08,12,33,23.60
2011,07,08,12,34,26.10
2011,07,08,12,35,26.20
2011,07,08,12,36,20.40
2011,07,08,12,37,21.80
2011,07,08,12,38,23.00
2011,07,08,12,39,26.10
2011,07,08,12,40,22.50
2011,07,08,12,41,24.10
2011,07,08,12,42,23.60
2011,07,08,12,43,24.00
2011,07,08,12,44,22.30
2011,07,08,12,45,23.50
2011,07,08,12,46,25.50
2011,07,08,12,47,21.10
2011,07,08,12,48,19.20
2011,07,08,12,49,23.50
2011,07,08,12,50,22.90
2011,07,08,12,51,25.30
2011,07,08,12,52,21.20
2011,07,08,12,53,20.10
2011,07,08,12,54,27.80
2011,07,08,12,55,19.90
2011,07,08,12,56,25.90
2011,07,08,12,57,26.10
2011,07,08,12,58,19.50
2011,07,08,12,59,17.90
2011,07,08,13,00,26.00
2011,07,08,13,01,25.50
2011,07,08,13,02,21.30
2011,07,08,13,03,20.00
2011,07,08,13,04,20.70
2011,07,08,13,05,20.70
2011,07,08,13,06,20.30
2011,07,08,13,07,20.70
2011,07,08,13,08,17.80
2011,07,08,13,09,20.40
2011,07,08,13,10,22.60
2011,07,08,13,11,22.60
2011,07,08,13,12,22.40
2011,07,08,13,13,22.00
2011,07,08,13,14,24.50
2011,07,08,13,15,24.90
2011,07,08,13,16,21.00
2011,07,08,13,17,19.90
2011,07,08,13,18,20.20
2011,07,08,13,19,22.40
2011,07,08,13,20,21.40
2011,07,08,13,21,22.80
2011,07,08,13,22,26.00
2011,07,08,13,23,18.90
2011,07,08,13,24,23.70
2011,07,08,13,25,24.80
2011,07,08,13,26,24.50
2011,07,08,13,27,25.30
2011,07,08,13,28,27.80
2011,07,08,13,29,27.40
2011,07,08,13,30,22.00
2011,07,08,13,31,29.60
2011,07,08,13,32,30.20
2011,07,08,13,33,28.30
2011,07,08,13,34,26.70
2011,07,08,13,35,24.10
2011,07,08,13,36,20.40
2011,07,08,13,37,18.40
2011,07,08,13,38,22.30
2011,07,08,13,39,20.00
2011,07,08,13,40,26.80
2011,07,08,13,41,26.40
2011,07,08,13,42,22.30
2011,07,08,13,43,20.60
2011,07,08,13,44,28.80
2011,07,08,13,45,30.30
2011,07,08,13,46,28.40
2011,07,08,13,47,26.60
2011,07,08,13,48,24.70
2011,07,08,13,49,23.90
2011,07,08,13,50,22.30
2011,07,08,13,51,26.30
2011,07,08,13,52,20.10
2011,07,08,13,53,21.20
2011,07,08,13,54,18.80
2011,07,08,13,55,26.20
2011,07,08,13,56,23.70
2011,07,08,13,57,28.20
2011,07,08,13,58,24.10
2011,07,08,13,59,23.60
2011,07,08,14,00,23.50
2011,07,08,14,01,24.10
2011,07,08,14,02,22.10
2011,07,08,14,03,21.70
2011,07,08,14,04,24.20
2011,07,08,14,05,26.90
2011,07,08,14,06,22.90
2011,07,08,14,07,25.10
2011,07,08,14,08,20.30
2011,07,08,14,09,16.80
2011,07,08,14,10,20.40
2011,07,08,14,11,30.10
2011,07,08,14,12,30.80
2011,07,08,14,13,27.50
2011,07,08,14,14,27.40
2011,07,08,14,15,33.00
2011,07,08,14,16,29.30
2011,07,08,14,17,27.40
2011,07,08,14,18,25.50
2011,07,08,14,19,27.70
2011,07,08,14,20,29.40
2011,07,08,14,21,25.80
2011,07,08,14,22,22.70
2011,07,08,14,23,26.60
2011,07,08,14,24,24.70
2011,07,08,14,25,21.40
2011,07,08,14,26,20.00
2011,07,08,14,27,23.40
2011,07,08,14,28,29.10
2011,07,08,14,29,26.00
2011,07,08,14,30,25.50
2011,07,08,14,31,26.60
2011,07,08,14,32,24.70
2011,07,08,14,33,22.50
2011,07,08,14,34,25.10
2011,07,08,14,35,27.00
2011,07,08,14,36,26.60
2011,07,08,14,37,19.20
2011,07,08,14,38,23.10
2011,07,08,14,39,23.30
2011,07,08,14,40,20.30
2011,07,08,14,41,18.20
2011,07,08,14,42,20.00
2011,07,08,14,43,16.40
2011,07,08,14,44,21.60
2011,07,08,14,45,23.80
2011,07,08,14,46,19.20
2011,07,08,14,47,16.70
2011,07,08,14,48,21.80
2011,07,08,14,49,18.80
2011,07,08,14,50,25.60
2011,07,08,14,51,25.80
2011,07,08,14,52,18.50
2011,07,08,14,53,25.50
2011,07,08,14,54,20.80
2011,07,08,14,55,24.80
2011,07,08,14,56,27.20
2011,07,08,14,57,25.40
2011,07,08,14,58,24.00
2011,07,08,14,59,22.00
2011,07,08,15,00,25.10
2011,07,08,15,01,27.20
2011,07,08,15,02,24.10
2011,07,08,15,03,21.30
2011,07,08,15,04,21.90
2011,07,08,15,05,22.10
2011,07,08,15,06,19.00
2011,07,08,15,07,24.20
2011,07,08,15,08,26.30
2011,07,08,15,09,20.40
2011,07,08,15,10,23.20
2011,07,08,15,11,21.70
2011,07,08,15,12,23.30
2011,07,08,15,13,27.80
2011,07,08,15,14,26.50
2011,07,08,15,15,20.50
2011,07,08,15,16,21.90
2011,07,08,15,17,25.40
2011,07,08,15,18,23.80
2011,07,08,15,19,28.90
2011,07,08,15,20,22.40
2011,07,08,15,21,27.00
2011,07,08,15,22,30.20
2011,07,08,15,23,24.90
2011,07,08,15,24,30.20
2011,07,08,15,25,27.60
2011,07,08,15,26,31.10
2011,07,08,15,27,30.70
2011,07,08,15,28,24.10
2011,07,08,15,29,29.00
2011,07,08,15,30,28.90
2011,07,08,15,31,24.80
2011,07,08,15,32,23.10
2011,07,08,15,33,27.10
2011,07,08,15,34,24.30
2011,07,08,15,35,31.40
2011,07,08,15,36,32.70
2011,07,08,15,37,22.20
2011,07,08,15,38,21.40
2011,07,08,15,39,24.00
2011,07,08,15,40,26.30
2011,07,08,15,41,26.50
2011,07,08,15,42,26.30
2011,07,08,15,43,24.90
2011,07,08,15,44,27.70
2011,07,08,15,45,29.40
2011,07,08,15,46,24.70
2011,07,08,15,47,21.10
2011,07,08,15,48,17.70
2011,07,08,15,49,24.60
2011,07,08,15,50,24.80
2011,07,08,15,51,21.30
2011,07,08,15,52,25.20
2011,07,08,15,53,19.00
2011,07,08,15,54,18.40
2011,07,08,15,55,19.80
2011,07,08,15,56,23.70
2011,07,08,15,57,24.90
2011,07,08,15,58,22.80
2011,07,08,15,59,22.20
2011,07,08,16,00,17.90
2011,07,08,16,01,19.70
2011,07,08,16,02,18.80
2011,07,08,16,03,22.00
2011,07,08,16,04,26.10
2011,07,08,16,05,27.00
2011,07,08,16,06,20.60
2011,07,08,16,07,16.30
2011,07,08,16,08,27.50
2011,07,08,16,09,24.20
2011,07,08,16,10,19.70
2011,07,08,16,11,22.40
2011,07,08,16,12,23.40
2011,07,08,16,13,17.70
2011,07,08,16,14,21.90
2011,07,08,16,15,26.60
2011,07,08,16,16,27.60
2011,07,08,16,17,22.00
2011,07,08,16,18,20.20
2011,07,08,16,19,22.80
2011,07,08,16,20,17.10
2011,07,08,16,21,21.50
2011,07,08,16,22,28.00
2011,07,08,16,23,21.80
2011,07,08,16,24,15.20
2011,07,08,16,25,19.60
2011,07,08,16,26,23.10
2011,07,08,16,27,21.00
2011,07,08,16,28,23.00
2011,07,08,16,29,25.80
2011,07,08,16,30,27.80
2011,07,08,16,31,26.20
2011,07,08,16,32,24.40
2011,07,08,16,33,25.80
2011,07,08,16,34,25.50
2011,07,08,16,35,23.50
2011,07,08,16,36,28.30
2011,07,08,16,37,25.20
2011,07,08,16,38,22.40
2011,07,08,16,39,25.90
2011,07,08,16,40,22.50
2011,07,08,16,41,23.30
2011,07,08,16,42,23.50
2011,07,08,16,43,23.50
2011,07,08,16,44,22.70
2011,07,08,16,45,22.40
2011,07,08,16,46,17.90
2011,07,08,16,47,18.60
2011,07,08,16,48,20.80
2011,07,08,16,49,20.20
2011,07,08,16,50,25.00
2011,07,08,16,51,27.00
2011,07,08,16,52,27.90
2011,07,08,16,53,23.40
2011,07,08,16,54,20.00
2011,07,08,16,55,23.00
2011,07,08,16,56,27.70
2011,07,08,16,57,25.60
2011,07,08,16,58,21.70
2011,07,08,16,59,25.10
2011,07,08,17,00,26.70
2011,07,08,17,01,26.80
2011,07,08,17,02,22.10
2011,07,08,17,03,19.10
2011,07,08,17,04,19.10
2011,07,08,17,05,15.40
2011,07,08,17,06,20.20
2011,07,08,17,07,22.90
2011,07,08,17,08,24.90
2011,07,08,17,09,26.50
2011,07,08,17,10,23.30
2011,07,08,17,11,21.20
2011,07,08,17,12,26.60
2011,07,08,17,13,26.20
2011,07,08,17,14,23.90
2011,07,08,17,15,21.90
2011,07,08,17,16,25.30
2011,07,08,17,17,22.80
2011,07,08,17,18,19.00
2011,07,08,17,19,24.60
2011,07,08,17,20,24.50